TimeMST,TemperatureF,Dew PointF,Humidity,Sea Level PressureIn,VisibilityMPH,Wind Direction,Wind SpeedMPH,Gust SpeedMPH,PrecipitationIn,Events,Conditions,WindDirDegrees,DateUTC
12:55 AM,58.5,35.8,43,30.03,10.0,North,3.5,-,N/A,,Mostly Cloudy,350,2012-11-18 07:55:00
1:55 AM,59.0,36.5,43,30.03,10.0,North,3.5,-,N/A,,Mostly Cloudy,350,2012-11-18 08:55:00
2:55 AM,55.4,39.2,54,30.04,10.0,North,4.6,-,N/A,,Clear,360,2012-11-18 09:55:00
3:55 AM,55.4,37.4,51,30.04,10.0,Variable,1.2,-,N/A,,Clear,0,2012-11-18 10:55:00
4:55 AM,52.2,37.2,57,30.02,10.0,NNW,6.9,-,N/A,,Clear,330,2012-11-18 11:55:00
6:55 AM,51.3,37.6,60,30.06,10.0,NNW,6.9,-,N/A,,Clear,340,2012-11-18 13:55:00
7:55 AM,54.3,38.7,55,30.07,10.0,NNW,5.8,-,N/A,,Clear,340,2012-11-18 14:55:00
8:55 AM,61.7,40.5,46,30.09,10.0,North,4.6,-,N/A,,Clear,360,2012-11-18 15:55:00
8:58 AM,61.7,40.5,46,30.09,10.0,North,4.6,-,N/A,,Clear,360,2012-11-18 15:58:00
9:55 AM,67.1,39.0,36,30.08,10.0,NNE,3.5,-,N/A,,Clear,30,2012-11-18 16:55:00
10:55 AM,69.6,36.7,30,30.08,10.0,North,-9999.0,-,N/A,,Clear,0,2012-11-18 17:55:00
11:55 AM,72.3,37.9,29,30.06,10.0,Calm,Calm,-,N/A,,Clear,0,2012-11-18 18:55:00
12:55 PM,75.0,40.5,29,30.04,10.0,Calm,Calm,-,N/A,,Clear,0,2012-11-18 19:55:00
1:55 PM,-9999,-9999,N/A,30.01,10.0,WNW,3.5,-,N/A,,Clear,300,2012-11-18 20:55:00
2:55 PM,76.6,43.5,31,30.01,10.0,Calm,Calm,-,N/A,,Clear,0,2012-11-18 21:55:00
2:58 PM,76.6,43.5,31,30.03,10.0,Calm,Calm,-,N/A,,Clear,0,2012-11-18 21:58:00
3:58 PM,77.2,43.2,30,30.03,10.0,West,2.3,-,N/A,,Clear,270,2012-11-18 22:58:00
4:58 PM,75.9,42.8,31,30.01,10.0,SSW,2.3,-,N/A,,Clear,200,2012-11-18 23:58:00
5:58 PM,71.1,43.5,37,30.03,10.0,West,1.2,-,N/A,,Clear,260,2012-11-19 00:58:00
6:58 PM,66.7,44.8,45,30.04,10.0,NW,3.5,-,N/A,,Clear,320,2012-11-19 01:58:00
7:55 PM,64.4,42.8,45,30.06,10.0,WNW,2.3,-,N/A,,Clear,300,2012-11-19 02:55:00
8:58 PM,61.3,43.0,51,30.06,10.0,NW,5.8,-,N/A,,Clear,310,2012-11-19 03:58:00
9:58 PM,60.3,42.6,52,30.06,10.0,North,5.8,-,N/A,,Clear,10,2012-11-19 04:58:00
10:58 PM,59.2,41.7,52,30.08,10.0,Variable,2.3,-,N/A,,Clear,0,2012-11-19 05:58:00
11:58 PM,56.7,41.2,56,30.08,10.0,NNW,4.6,-,N/A,,Clear,330,2012-11-19 06:58:00